Regional Weather Roundup
Issued by NWS

Home | Current Version | Previous Version | Text Only | Print | Product List | Glossary Off
Versions: 1 2 3 4 5 6 7 8 9 10 11 12 13 14 15 16 17 18 19 20 21 22 23 24 25 26 27 28 29 30 31 32 33 34 35 36 37 38 39 40 41 42 43 44 45 46 47 48 49 50

000
ASUS43 KLMK 251710
RWRKY
KENTUCKY REGIONAL WEATHER ROUNDUP
NATIONAL WEATHER SERVICE LOUISVILLE KY
100 PM EDT THU AUG 25 2016

NOTE "FAIR" INDICATES FEW OR NO CLOUDS BELOW 12,000 FEET
WITH NO SIGNIFICANT WEATHER AND/OR OBSTRUCTIONS TO VISIBILITY.

KYZ001>023-026-027-061>063-070>075-251800-
WESTERN AND SOUTH CENTRAL KENTUCKY

CITY           SKY/WX    TMP DP  RH WIND       PRES   REMARKS
PADUCAH        MOSUNNY   91  74  57 W7        30.11S HX 100
HENDERSON      SUNNY     91  73  55 S8        30.08S HX 100
OWENSBORO      SUNNY     91  75  59 SW10      30.11S HX 101
HOPKINSVILLE   MOSUNNY   90  74  60 SW12      30.13F HX  99
BOWLING GREEN  MOSUNNY   90  74  59 W10       30.13F HX  99
GLASGOW        CLOUDY    87  74  66 SW7       30.14F HX  95
$$

KYZ024-025-028>034-038-045-046-053-251800-
NORTH CENTRAL KENTUCKY

CITY           SKY/WX    TMP DP  RH WIND       PRES   REMARKS
LOUISVILLE/SDF MOSUNNY   91  71  51 SW15      30.10S HX  97
LOUISVILLE/LOU MOSUNNY   88  71  57 W10       30.11S HX  94
FORT KNOX      MOSUNNY   89  72  56 SW10      30.11S HX  96
$$

KYZ035>037-039>044-047>052-055>060-089>105-251800-
NORTHEAST KENTUCKY

CITY           SKY/WX    TMP DP  RH WIND       PRES   REMARKS
LEXINGTON      MOSUNNY   89  72  56 SW10      30.14S HX  96
COVINGTON      MOSUNNY   86  77  74 W10       30.10S HX  97
FRANKFORT      SUNNY     89  71  55 W13       30.11S HX  95
$$

KYZ054-064>069-076>088-106>120-251800-
SOUTHEAST KENTUCKY

CITY           SKY/WX    TMP DP  RH WIND       PRES   REMARKS
JACKSON        MOSUNNY   86  74  67 VRB3      30.18F HX  94
LONDON         PTSUNNY   87  71  58 SW7       30.18F HX  93
SOMERSET       SUNNY     84  72  65 W6        30.18F
MIDDLESBORO    MOSUNNY   86  74  66 CALM      30.19F HX  94
MONTICELLO       N/A    N/A N/A N/A W10       30.19F
$$





USA.gov is the U.S. government's official web portal to all federal, state and local government web resources and services.